FW5248 Weather Reports


time (UTC)temp
C
wind
direction
speed
KPH
gust
KPH
rain 1hr
cm
rain 24hr
cm
rain mn
cm
humidity
%
barometer
mb
20260504213853 24 247 8.0 12.9 0.00 0.00 0.00 45 1012.1
20260504213354 24 237 8.0 16.1 0.00 0.00 0.00 47 1012.2
20260504212854 24 180 8.0 22.5 0.00 0.00 0.00 46 1012.2
20260504212405 24 166 6.4 12.9 0.00 0.00 0.00 46 1012.3
20260504212354 24 216 8.0 22.5 0.00 0.00 0.00 48 1012.3
20260504211351 24 215 6.4 12.9 0.00 0.00 0.00 48 1012.3
20260504210850 24 237 4.8 12.9 0.00 0.00 0.00 48 1012.4
20260504210351 23 201 4.8 11.3 0.00 0.00 0.00 51 1012.4
20260504210137 24 286 6.4 12.9 0.00 0.00 0.00 47 1012.7
20260504205346 24 224 4.8 12.9 0.00 0.00 0.00 48 1012.7
20260504204847 24 249 3.2 9.7 0.00 0.00 0.00 47 1012.7
20260504204346 23 7 8.0 22.5 0.00 0.00 0.00 48 1012.8
20260504203845 23 270 9.7 22.5 0.00 0.00 0.00 46 1012.8
20260504203348 23 223 8.0 20.9 0.00 0.00 0.00 50 1012.9
20260504202846 23 203 6.4 20.9 0.00 0.00 0.00 52 1012.9
20260504202348 23 269 8.0 16.1 0.00 0.00 0.00 50 1013.0
20260504201847 23 282 8.0 16.1 0.00 0.00 0.00 49 1013.0
20260504201346 23 270 11.3 22.5 0.00 0.00 0.00 52 1013.0
20260504201107 23 313 11.3 22.5 0.00 0.00 0.00 52 1013.2
20260504200344 23 282 11.3 19.3 0.00 0.00 0.00 50 1013.2
20260504195845 23 266 9.7 19.3 0.00 0.00 0.00 53 1013.3
20260504195346 23 240 9.7 20.9 0.00 0.00 0.00 52 1013.4
20260504195107 23 207 9.7 20.9 0.00 0.00 0.00 53 1013.5
20260504194338 23 237 11.3 19.3 0.00 0.00 0.00 51 1013.6
20260504193838 23 185 9.7 17.7 0.00 0.00 0.00 52 1013.7
20260504193340 23 286 8.0 19.3 0.00 0.00 0.00 50 1013.8
20260504192841 23 248 8.0 22.5 0.00 0.00 0.00 52 1014.0
20260504192341 23 246 8.0 22.5 0.00 0.00 0.00 52 1014.1
20260504191839 22 185 8.0 17.7 0.00 0.00 0.00 51 1014.2
20260504191341 22 232 8.0 17.7 0.00 0.00 0.00 50 1014.2
20260504190845 22 226 8.0 17.7 0.00 0.00 0.00 50 1014.3
20260504190340 22 259 9.7 19.3 0.00 0.00 0.00 55 1014.4
20260504185839 22 282 9.7 19.3 0.00 0.00 0.00 53 1014.4
20260504185559 22 280 9.7 17.7 0.00 0.00 0.00 52 1014.6
20260504184841 22 230 8.0 16.1 0.00 0.00 0.00 50 1014.8
20260504184334 22 173 6.4 16.1 0.00 0.00 0.00 51 1014.8
20260504183830 21 249 8.0 20.9 0.00 0.00 0.00 52 1014.9
20260504183326 21 318 9.7 20.9 0.00 0.00 0.00 50 1014.9
20260504182826 22 294 8.0 17.7 0.00 0.00 0.00 50 1015.0
20260504182546 22 257 8.0 14.5 0.00 0.00 0.00 53 1015.1
20260504181827 22 230 8.0 16.1 0.00 0.00 0.00 52 1015.1
20260504181325 21 269 8.0 16.1 0.00 0.00 0.00 52 1015.1
20260504180830 22 280 8.0 19.3 0.00 0.00 0.00 53 1015.2
20260504180330 21 161 6.4 19.3 0.00 0.00 0.00 54 1015.3
20260504175828 21 181 4.8 14.5 0.00 0.00 0.00 51 1015.3
20260504175330 21 194 8.0 14.5 0.00 0.00 0.00 54 1015.4
20260504174826 20 223 6.4 14.5 0.00 0.00 0.00 51 1015.4
20260504174325 21 239 6.4 14.5 0.00 0.00 0.00 55 1015.4
20260504173828 20 257 6.4 14.5 0.00 0.00 0.00 55 1015.4
20260504173323 20 270 6.4 14.5 0.00 0.00 0.00 55 1015.5
20260504172823 20 287 6.4 17.7 0.00 0.00 0.00 51 1015.6
20260504172323 21 355 6.4 17.7 0.00 0.00 0.00 55 1015.6
20260504171823 20 111 8.0 19.3 0.00 0.00 0.00 57 1015.7
20260504171324 20 218 6.4 19.3 0.00 0.00 0.00 54 1015.8
20260504171048 20 149 3.2 14.5 0.00 0.00 0.00 53 1015.9
20260504170324 20 58 3.2 9.7 0.00 0.00 0.00 53 1016.1
20260504160320 17 170 4.8 11.3 0.00 0.00 0.00 60 1016.9
20260504150805 14 334 1.6 4.8 0.00 0.00 0.00 64 1018.2
20260504150300 14 224 3.2 11.3 0.00 0.00 0.00 62 1018.3
20260504141304 12 41 4.8 12.9 0.00 0.00 0.00 71 1018.7
20260504140752 12 16 4.8 8.0 0.00 0.00 0.00 70 1019.0
20260504140247 12 355 4.8 8.0 0.00 0.00 0.00 71 1019.0
20260504130744 9 291 1.6 6.4 0.00 0.00 0.00 78 1018.1
20260504130239 8 235 0.0 6.4 0.00 0.00 0.00 79 1018.0
20260504120230 6 252 1.6 4.8 0.00 0.00 0.00 88 1017.4
20260504110718 4 131 6.4 12.9 0.00 0.00 0.00 90 1016.4
20260504110706 4 130 4.8 9.7 0.00 0.00 0.00 91 1016.3
20260504100206 4 72 0.0 0.0 0.00 0.00 0.00 86 1017.1
20260504081918 3 172 0.0 3.2 0.00 0.00 0.00 90 1017.1
20260504081149 3 172 0.0 3.2 0.00 0.00 0.00 89 1017.1
20260504080926 3 176 0.0 1.6 0.00 0.00 0.00 89 1017.1
20260504080150 3 176 0.0 1.6 0.00 0.00 0.00 89 1017.1
20260504070410 3 99 0.0 4.8 0.00 0.00 0.00 86 1016.8
20260504060116 5 143 1.6 6.4 0.00 0.00 0.00 81 1017.3
20260504050604 6 123 0.0 3.2 0.00 0.00 0.00 80 1017.1
20260504050106 6 123 0.0 3.2 0.00 0.00 0.00 81 1017.1
20260504045602 6 123 0.0 3.2 0.00 0.00 0.00 81 1017.1
20260504045101 5 151 1.6 4.8 0.00 0.00 0.00 82 1017.2
20260504044601 5 144 0.0 4.8 0.00 0.00 0.00 83 1017.2
20260504044059 5 113 0.0 4.8 0.00 0.00 0.00 83 1017.2
20260504043824 5 110 1.6 4.8 0.00 0.00 0.00 82 1017.2
20260504043055 5 93 0.0 3.2 0.00 0.00 0.00 82 1017.1
20260504042554 5 93 0.0 3.2 0.00 0.00 0.00 81 1017.2
20260504042056 5 93 1.6 3.2 0.00 0.00 0.00 82 1017.1
20260504041557 5 48 1.6 3.2 0.00 0.00 0.00 82 1016.9
20260504041054 5 99 0.0 3.2 0.00 0.00 0.00 83 1016.9
20260504040553 5 99 1.6 6.4 0.00 0.00 0.00 84 1016.9
20260504040050 5 98 1.6 6.4 0.00 0.00 0.00 84 1017.1
20260504035550 5 104 1.6 6.4 0.00 0.00 0.00 82 1017.1
20260504035050 6 104 1.6 6.4 0.00 0.00 0.00 81 1017.2
20260504034546 6 103 0.0 4.8 0.00 0.00 0.00 81 1017.1
20260504034046 6 104 0.0 3.2 0.00 0.00 0.00 82 1017.1
20260504033548 6 104 0.0 3.2 0.00 0.00 0.00 81 1016.9
20260504033045 6 104 0.0 3.2 0.00 0.00 0.00 80 1016.9
20260504032546 6 104 0.0 3.2 0.00 0.00 0.00 79 1016.9
20260504032045 6 104 1.6 6.4 0.00 0.00 0.00 80 1016.9
20260504032027 6 110 1.6 6.4 0.00 0.00 0.00 79 1016.8
20260504031044 6 100 0.0 4.8 0.00 0.00 0.00 78 1016.7
20260504030543 6 95 0.0 3.2 0.00 0.00 0.00 79 1016.7
20260504030320 6 95 0.0 1.6 0.00 0.00 0.00 79 1016.8
20260504025545 6 95 0.0 1.6 0.00 0.00 0.00 79 1016.8
20260504025042 6 95 0.0 1.6 0.00 0.00 0.00 79 1016.8
20260504024544 6 95 0.0 1.6 0.00 0.00 0.00 79 1016.8
20260504024534 6 95 1.6 3.2 0.00 0.00 0.00 79 1016.7
20260504023541 6 95 1.6 3.2 0.00 0.00 0.00 79 1016.7
20260504023041 6 102 1.6 4.8 0.00 0.00 0.00 80 1016.7
20260504022537 6 102 3.2 6.4 0.00 0.00 0.00 80 1016.7
20260504022040 6 104 1.6 6.4 0.00 0.00 0.00 78 1016.7
20260504021538 6 102 0.0 4.8 0.00 0.00 0.00 76 1016.7
20260504021045 6 102 0.0 3.2 0.00 0.00 0.00 76 1016.7
20260504020537 7 102 1.6 3.2 0.00 0.00 0.00 77 1016.6
20260504020300 7 102 0.0 3.2 0.00 0.00 0.00 77 1016.5
20260504015752 7 102 0.0 1.6 0.00 0.00 0.00 76 1016.5
20260504015035 7 102 1.6 4.8 0.00 0.00 0.00 76 1016.6
20260504014534 7 102 3.2 6.4 0.00 0.00 0.00 76 1016.6
20260504014259 7 103 1.6 6.4 0.00 0.00 0.00 74 1016.6
20260504013534 8 69 1.6 3.2 0.00 0.00 0.00 72 1016.6
20260504013034 8 69 1.6 3.2 0.00 0.00 0.00 72 1016.7
20260504012535 8 102 3.2 6.4 0.00 0.00 0.00 72 1016.6
20260504012031 8 102 3.2 6.4 0.00 0.00 0.00 70 1016.6
20260504011531 9 109 1.6 4.8 0.00 0.00 0.00 66 1016.6
20260504011031 9 39 0.0 3.2 0.00 0.00 0.00 65 1016.6
20260504010531 10 114 1.6 4.8 0.00 0.00 0.00 66 1016.4
20260504010031 10 114 1.6 4.8 0.00 0.00 0.00 65 1016.2
20260504005756 10 187 1.6 3.2 0.00 0.00 0.00 63 1016.3
20260504005032 11 187 0.0 3.2 0.00 0.00 0.00 60 1016.3
20260504004529 11 187 0.0 0.0 0.00 0.00 0.00 59 1016.2
20260504004029 11 187 0.0 0.0 0.00 0.00 0.00 56 1016.2
20260504003530 12 187 0.0 3.2 0.00 0.00 0.00 55 1016.0
20260504003029 12 187 1.6 4.8 0.00 0.00 0.00 54 1016.0
20260504002753 12 187 3.2 6.4 0.00 0.00 0.00 54 1015.9
20260504002032 13 176 3.2 6.4 0.00 0.00 0.00 51 1015.9
20260504001532 13 206 3.2 4.8 0.00 0.00 0.00 49 1015.9
20260504001026 13 209 3.2 6.4 0.00 0.00 0.00 48 1016.0
20260504000521 14 228 4.8 11.3 0.00 0.00 0.00 47 1015.9
20260504000018 14 253 4.8 11.3 0.00 0.00 0.00 47 1015.9
20260503235516 15 245 4.8 11.3 0.00 0.00 0.00 46 1015.9
20260503235014 15 233 6.4 11.3 0.00 0.00 0.00 45 1015.9
20260503234755 15 245 6.4 11.3 0.00 0.00 0.00 44 1015.9
20260503234015 15 237 6.4 14.5 0.00 0.00 0.00 45 1016.0
20260503233514 15 239 8.0 14.5 0.00 0.00 0.00 44 1016.0
20260503233012 15 247 9.7 16.1 0.00 0.00 0.00 44 1015.7
20260503232907 16 243 9.7 16.1 0.00 0.00 0.00 44 1016.0
20260503232247 16 248 11.3 22.5 0.00 0.00 0.00 43 1016.0
20260503231514 16 226 9.7 22.5 0.00 0.00 0.00 41 1016.0
20260503231014 16 253 4.8 17.7 0.00 0.00 0.00 41 1016.0
20260503230513 16 224 6.4 16.1 0.00 0.00 0.00 43 1016.0
20260503230013 16 186 9.7 16.1 0.00 0.00 0.00 42 1016.0
20260503225514 16 266 9.7 16.1 0.00 0.00 0.00 40 1016.0
20260503225021 16 226 11.3 17.7 0.00 0.00 0.00 42 1016.0
20260503224523 16 284 11.3 19.3 0.00 0.00 0.00 40 1016.1
20260503224021 16 248 9.7 19.3 0.00 0.00 0.00 41 1016.0
20260503223521 16 185 8.0 14.5 0.00 0.00 0.00 41 1016.1
20260503223238 16 247 9.7 19.3 0.00 0.00 0.00 41 1016.2
20260503222514 16 269 9.7 19.3 0.00 0.00 0.00 39 1016.3
20260503222013 17 278 6.4 14.5 0.00 0.00 0.00 39 1016.2
20260503221513 17 235 9.7 16.1 0.00 0.00 0.00 40 1016.3
20260503221011 17 255 8.0 16.1 0.00 0.00 0.00 40 1016.3
20260503220509 17 233 8.0 17.7 0.00 0.00 0.00 40 1016.3
20260503220008 17 297 9.7 19.3 0.00 0.00 0.00 39 1016.3
20260503215508 16 232 8.0 19.3 0.00 0.00 0.00 40 1016.3
20260503215007 16 295 8.0 14.5 0.00 0.00 0.00 41 1016.4
20260503214501 16 224 9.7 19.3 0.00 0.00 0.00 41 1016.4